| time (UTC) | temp F | wind direction | speed MPH | gust MPH | rain 1hr in | rain 24hr in | rain mn in | humidity % | barometer mb |
| 20260904002028 | 64 | 0.0 | 1.0 | 0.00 | 0.14 | 0.00 | 90 | ||
| 20260904001021 | 64 | 215 | 1.0 | 2.0 | 0.00 | 0.14 | 0.00 | 89 | |
| 20260904000025 | 64 | 109 | 0.0 | 2.0 | 0.00 | 0.14 | 0.00 | 89 | |
| 20260903235019 | 64 | 187 | 1.0 | 3.0 | 0.00 | 0.14 | 0.00 | 89 | |
| 20260903234029 | 65 | 221 | 0.0 | 2.0 | 0.00 | 0.14 | 0.00 | 88 | |
| 20260903233020 | 65 | 151 | 0.0 | 2.0 | 0.00 | 0.14 | 0.00 | 88 | |
| 20260903232027 | 65 | 215 | 0.0 | 4.0 | 0.00 | 0.14 | 0.00 | 88 | |
| 20260903231022 | 65 | 193 | 0.0 | 2.0 | 0.00 | 0.14 | 0.00 | 89 | |
| 20260903230029 | 65 | 134 | 1.0 | 2.0 | 0.00 | 0.14 | 0.00 | 90 | |
| 20260903225027 | 65 | 215 | 0.0 | 2.0 | 0.00 | 0.14 | 0.00 | 89 | |
| 20260903224029 | 65 | 199 | 1.0 | 2.0 | 0.00 | 0.14 | 0.00 | 89 | |
| 20260903223019 | 65 | 102 | 0.0 | 2.0 | 0.00 | 0.14 | 0.00 | 89 | |
| 20260903222020 | 65 | 69 | 0.0 | 2.0 | 0.00 | 0.14 | 0.00 | 89 | |
| 20260903221022 | 65 | 122 | 0.0 | 2.0 | 0.00 | 0.14 | 0.00 | 88 | |
| 20260903220028 | 65 | 303 | 1.0 | 3.0 | 0.00 | 0.14 | 0.00 | 89 | |
| 20260903215023 | 65 | 156 | 1.0 | 2.0 | 0.00 | 0.14 | 0.14 | 89 | |
| 20260903214028 | 65 | 123 | 0.0 | 2.0 | 0.00 | 0.14 | 0.14 | 89 | |
| 20260903213019 | 65 | 212 | 0.0 | 2.0 | 0.00 | 0.14 | 0.14 | 89 | |
| 20260903212029 | 65 | 108 | 0.0 | 2.0 | 0.00 | 0.14 | 0.14 | 90 | |
| 20260903211023 | 65 | 48 | 0.0 | 2.0 | 0.00 | 0.14 | 0.14 | 90 | |
| 20260903210028 | 65 | 99 | 0.0 | 2.0 | 0.00 | 0.14 | 0.14 | 91 | |
| 20260903205019 | 64 | 62 | 0.0 | 2.0 | 0.00 | 0.14 | 0.14 | 92 | |
| 20260903204029 | 64 | 166 | 0.0 | 2.0 | 0.00 | 0.14 | 0.14 | 92 | |
| 20260903203021 | 64 | 147 | 0.0 | 2.0 | 0.00 | 0.14 | 0.14 | 92 | |
| 20260903202031 | 64 | 197 | 1.0 | 2.0 | 0.00 | 0.14 | 0.14 | 93 | |
| 20260903201020 | 63 | 221 | 1.0 | 2.0 | 0.00 | 0.14 | 0.14 | 95 | |
| 20260903200027 | 62 | 60 | 0.0 | 2.0 | 0.00 | 0.14 | 0.14 | 96 | |
| 20260903195020 | 62 | 184 | 0.0 | 1.0 | 0.00 | 0.14 | 0.14 | 96 | |
| 20260903194021 | 62 | 0 | 0.0 | 1.0 | 0.00 | 0.14 | 0.14 | 95 | |
| 20260903193019 | 62 | 0.0 | 0.0 | 0.00 | 0.14 | 0.14 | 95 | ||
| 20260903192029 | 62 | 0.0 | 0.0 | 0.00 | 0.14 | 0.14 | 95 | ||
| 20260903191019 | 62 | 0.0 | 0.0 | 0.00 | 0.14 | 0.14 | 94 | ||
| 20260903190029 | 63 | 0.0 | 0.0 | 0.00 | 0.14 | 0.14 | 94 | ||
| 20260903185019 | 63 | 0.0 | 0.0 | 0.00 | 0.14 | 0.14 | 93 | ||
| 20260903184028 | 64 | 328 | 0.0 | 1.0 | 0.00 | 0.14 | 0.14 | 93 | |
| 20260903183019 | 64 | 143 | 0.0 | 1.0 | 0.00 | 0.14 | 0.14 | 92 | |
| 20260903182029 | 65 | 215 | 1.0 | 3.0 | 0.00 | 0.14 | 0.14 | 92 | |
| 20260903181020 | 65 | 186 | 0.0 | 3.0 | 0.00 | 0.14 | 0.14 | 92 | |
| 20260903180029 | 65 | 179 | 0.0 | 2.0 | 0.00 | 0.14 | 0.14 | 91 | |
| 20260903175020 | 65 | 192 | 0.0 | 2.0 | 0.00 | 0.14 | 0.14 | 91 | |
| 20260903174028 | 66 | 157 | 1.0 | 2.0 | 0.00 | 0.14 | 0.14 | 91 | |
| 20260903173019 | 66 | 136 | 0.0 | 2.0 | 0.00 | 0.14 | 0.14 | 91 | |
| 20260903172030 | 66 | 154 | 1.0 | 2.0 | 0.00 | 0.14 | 0.14 | 91 | |
| 20260903171020 | 66 | 157 | 1.0 | 4.0 | 0.00 | 0.14 | 0.14 | 91 | |
| 20260903170026 | 65 | 206 | 1.0 | 3.0 | 0.00 | 0.14 | 0.14 | 92 | |
| 20260903165020 | 65 | 224 | 1.0 | 3.0 | 0.00 | 0.14 | 0.14 | 92 | |
| 20260903164027 | 65 | 156 | 1.0 | 2.0 | 0.00 | 0.14 | 0.14 | 92 | |
| 20260903163019 | 65 | 150 | 0.0 | 2.0 | 0.00 | 0.14 | 0.14 | 92 | |
| 20260903162031 | 65 | 150 | 0.0 | 2.0 | 0.00 | 0.14 | 0.14 | 93 | |
| 20260903161022 | 65 | 179 | 1.0 | 3.0 | 0.01 | 0.14 | 0.14 | 93 | |
| 20260903160028 | 65 | 183 | 1.0 | 4.0 | 0.01 | 0.14 | 0.14 | 93 | |
| 20260903155020 | 65 | 189 | 1.0 | 4.0 | 0.01 | 0.14 | 0.14 | 92 | |
| 20260903154028 | 65 | 155 | 1.0 | 3.0 | 0.01 | 0.14 | 0.14 | 92 | |
| 20260903153019 | 65 | 170 | 1.0 | 3.0 | 0.01 | 0.14 | 0.14 | 93 | |
| 20260903152020 | 65 | 109 | 0.0 | 1.0 | 0.01 | 0.14 | 0.14 | 93 | |
| 20260903151022 | 64 | 325 | 1.0 | 3.0 | 0.00 | 0.13 | 0.13 | 92 | |
| 20260903150028 | 64 | 138 | 1.0 | 4.0 | 0.00 | 0.13 | 0.13 | 91 | |
| 20260903145020 | 64 | 145 | 1.0 | 3.0 | 0.00 | 0.13 | 0.13 | 91 | |
| 20260903144044 | 65 | 172 | 2.0 | 4.0 | 0.00 | 0.13 | 0.13 | 90 | |
| 20260903143020 | 66 | 150 | 1.0 | 4.0 | 0.00 | 0.13 | 0.13 | 90 | |
| 20260903142024 | 65 | 158 | 1.0 | 3.0 | 0.00 | 0.13 | 0.13 | 91 | |
| 20260903141019 | 64 | 212 | 1.0 | 3.0 | 0.00 | 0.13 | 0.13 | 90 | |
| 20260903140028 | 64 | 228 | 2.0 | 4.0 | 0.00 | 0.13 | 0.13 | 91 | |
| 20260903135020 | 65 | 158 | 1.0 | 4.0 | 0.00 | 0.13 | 0.13 | 91 | |
| 20260903134028 | 64 | 253 | 1.0 | 4.0 | 0.00 | 0.13 | 0.13 | 91 | |
| 20260903133020 | 64 | 228 | 2.0 | 4.0 | 0.00 | 0.13 | 0.13 | 92 | |
| 20260903132028 | 64 | 178 | 1.0 | 3.0 | 0.00 | 0.13 | 0.13 | 92 | |
| 20260903131020 | 64 | 197 | 1.0 | 4.0 | 0.00 | 0.13 | 0.13 | 92 | |
| 20260903130028 | 64 | 133 | 1.0 | 4.0 | 0.00 | 0.13 | 0.13 | 92 | |
| 20260903125021 | 64 | 318 | 1.0 | 6.0 | 0.00 | 0.13 | 0.13 | 91 | |
| 20260903124027 | 64 | 160 | 2.0 | 8.0 | 0.04 | 0.13 | 0.13 | 91 | |
| 20260903123020 | 64 | 231 | 2.0 | 4.0 | 0.04 | 0.13 | 0.13 | 91 | |
| 20260903122028 | 65 | 45 | 1.0 | 4.0 | 0.11 | 0.13 | 0.13 | 91 | |
| 20260903121020 | 65 | 358 | 1.0 | 4.0 | 0.13 | 0.13 | 0.13 | 91 | |
| 20260903120028 | 65 | 102 | 1.0 | 5.0 | 0.13 | 0.13 | 0.13 | 90 | |
| 20260903115020 | 64 | 113 | 1.0 | 5.0 | 0.13 | 0.13 | 0.13 | 90 | |
| 20260903114028 | 64 | 53 | 0.0 | 2.0 | 0.09 | 0.09 | 0.09 | 90 | |
| 20260903113020 | 65 | 111 | 0.0 | 3.0 | 0.09 | 0.09 | 0.09 | 86 | |
| 20260903112027 | 69 | 350 | 2.0 | 6.0 | 0.02 | 0.02 | 0.02 | 71 | |
| 20260903111020 | 70 | 71 | 2.0 | 6.0 | 0.00 | 0.00 | 0.00 | 66 | |
| 20260903110028 | 70 | 204 | 1.0 | 3.0 | 0.00 | 0.00 | 0.00 | 65 | |
| 20260903105020 | 70 | 317 | 2.0 | 6.0 | 0.00 | 0.00 | 0.00 | 65 | |
| 20260903104030 | 70 | 133 | 0.0 | 2.0 | 0.00 | 0.00 | 0.00 | 67 | |
| 20260903103020 | 69 | 150 | 1.0 | 2.0 | 0.00 | 0.00 | 0.00 | 66 | |
| 20260903102028 | 69 | 133 | 1.0 | 3.0 | 0.00 | 0.00 | 0.00 | 65 | |
| 20260903101020 | 69 | 359 | 1.0 | 4.0 | 0.00 | 0.00 | 0.00 | 64 | |
| 20260903100024 | 69 | 126 | 2.0 | 5.0 | 0.00 | 0.00 | 0.00 | 64 | |
| 20260903095020 | 70 | 245 | 2.0 | 8.0 | 0.00 | 0.00 | 0.00 | 62 | |
| 20260903094028 | 70 | 241 | 2.0 | 5.0 | 0.00 | 0.00 | 0.00 | 63 | |
| 20260903093020 | 69 | 143 | 2.0 | 4.0 | 0.00 | 0.00 | 0.00 | 64 | |
| 20260903092028 | 68 | 152 | 2.0 | 7.0 | 0.00 | 0.00 | 0.00 | 65 | |
| 20260903091025 | 68 | 149 | 2.0 | 5.0 | 0.00 | 0.00 | 0.00 | 66 | |
| 20260903090025 | 67 | 139 | 3.0 | 9.0 | 0.00 | 0.00 | 0.00 | 67 | |
| 20260903085020 | 67 | 154 | 2.0 | 7.0 | 0.00 | 0.00 | 0.00 | 68 | |
| 20260903084031 | 66 | 176 | 1.0 | 4.0 | 0.00 | 0.00 | 0.00 | 69 | |
| 20260903083020 | 66 | 148 | 2.0 | 4.0 | 0.00 | 0.00 | 0.00 | 70 | |
| 20260903082020 | 65 | 119 | 2.0 | 4.0 | 0.00 | 0.00 | 0.00 | 70 | |
| 20260903081020 | 65 | 130 | 2.0 | 4.0 | 0.00 | 0.00 | 0.00 | 71 | |
| 20260903080029 | 64 | 118 | 2.0 | 7.0 | 0.00 | 0.00 | 0.00 | 71 | |
| 20260903075020 | 64 | 157 | 2.0 | 7.0 | 0.00 | 0.00 | 0.00 | 73 | |
| 20260903074030 | 63 | 147 | 2.0 | 5.0 | 0.00 | 0.00 | 0.00 | 73 | |
| 20260903073024 | 63 | 146 | 1.0 | 4.0 | 0.00 | 0.00 | 0.00 | 74 | |
| 20260903072028 | 63 | 177 | 2.0 | 5.0 | 0.00 | 0.00 | 0.00 | 75 | |
| 20260903071020 | 62 | 138 | 2.0 | 4.0 | 0.00 | 0.00 | 0.00 | 76 | |
| 20260903070044 | 62 | 160 | 2.0 | 6.0 | 0.00 | 0.00 | 0.00 | 78 | |
| 20260903065020 | 62 | 156 | 2.0 | 5.0 | 0.00 | 0.00 | 0.00 | 78 | |
| 20260903064030 | 61 | 155 | 3.0 | 7.0 | 0.00 | 0.00 | 0.00 | 78 | |
| 20260903063023 | 61 | 139 | 2.0 | 6.0 | 0.00 | 0.00 | 0.00 | 80 | |
| 20260903062028 | 60 | 147 | 2.0 | 4.0 | 0.00 | 0.00 | 0.00 | 82 | |
| 20260903061020 | 60 | 144 | 2.0 | 4.0 | 0.00 | 0.00 | 0.00 | 82 | |
| 20260903060020 | 59 | 143 | 2.0 | 7.0 | 0.00 | 0.00 | 0.00 | 83 | |
| 20260903055020 | 59 | 160 | 1.0 | 3.0 | 0.00 | 0.00 | 0.00 | 84 | |
| 20260903054028 | 59 | 154 | 2.0 | 4.0 | 0.00 | 0.00 | 0.00 | 84 | |
| 20260903053021 | 59 | 141 | 2.0 | 3.0 | 0.00 | 0.00 | 0.00 | 85 | |
| 20260903052028 | 58 | 157 | 1.0 | 5.0 | 0.00 | 0.00 | 0.00 | 85 | |
| 20260903051020 | 58 | 150 | 1.0 | 2.0 | 0.00 | 0.00 | 0.00 | 85 | |
| 20260903050028 | 58 | 145 | 2.0 | 4.0 | 0.00 | 0.00 | 0.00 | 85 | |
| 20260903045020 | 58 | 136 | 2.0 | 4.0 | 0.00 | 0.00 | 0.00 | 85 | |
| 20260903044028 | 58 | 159 | 2.0 | 4.0 | 0.00 | 0.00 | 0.00 | 85 | |
| 20260903043020 | 58 | 161 | 2.0 | 4.0 | 0.00 | 0.00 | 0.00 | 85 | |
| 20260903042028 | 58 | 139 | 0.0 | 2.0 | 0.00 | 0.00 | 0.00 | 85 | |
| 20260903041020 | 58 | 150 | 1.0 | 4.0 | 0.00 | 0.00 | 0.00 | 85 | |
| 20260903040028 | 57 | 147 | 1.0 | 3.0 | 0.00 | 0.01 | 0.00 | 87 | |
| 20260903035020 | 57 | 140 | 2.0 | 4.0 | 0.00 | 0.01 | 0.00 | 87 | |
| 20260903034024 | 58 | 141 | 1.0 | 3.0 | 0.00 | 0.01 | 0.00 | 86 | |
| 20260903033020 | 58 | 144 | 1.0 | 4.0 | 0.00 | 0.01 | 0.00 | 86 | |
| 20260903032028 | 57 | 140 | 2.0 | 4.0 | 0.00 | 0.01 | 0.00 | 88 | |
| 20260903031020 | 57 | 150 | 2.0 | 4.0 | 0.00 | 0.01 | 0.00 | 89 | |
| 20260903030025 | 56 | 165 | 1.0 | 3.0 | 0.00 | 0.01 | 0.00 | 91 | |
| 20260903025020 | 55 | 140 | 1.0 | 2.0 | 0.00 | 0.01 | 0.00 | 92 | |
| 20260903024028 | 55 | 155 | 1.0 | 2.0 | 0.00 | 0.01 | 0.00 | 92 | |
| 20260903023020 | 55 | 140 | 0.0 | 2.0 | 0.00 | 0.01 | 0.00 | 93 | |
| 20260903022029 | 54 | 156 | 1.0 | 2.0 | 0.00 | 0.01 | 0.00 | 93 | |
| 20260903021024 | 54 | 160 | 1.0 | 2.0 | 0.00 | 0.01 | 0.00 | 92 | |
| 20260903020029 | 54 | 157 | 1.0 | 2.0 | 0.00 | 0.01 | 0.00 | 92 | |
| 20260903015021 | 55 | 0.0 | 0.0 | 0.00 | 0.01 | 0.00 | 91 | ||
| 20260903014029 | 55 | 177 | 0.0 | 1.0 | 0.00 | 0.01 | 0.00 | 91 | |
| 20260903013020 | 55 | 149 | 0.0 | 2.0 | 0.00 | 0.01 | 0.00 | 90 | |
| 20260903012020 | 56 | 146 | 1.0 | 2.0 | 0.00 | 0.01 | 0.00 | 90 | |
| 20260903011020 | 56 | 137 | 1.0 | 3.0 | 0.00 | 0.01 | 0.00 | 89 | |
| 20260903010033 | 57 | 148 | 1.0 | 3.0 | 0.00 | 0.01 | 0.00 | 89 | |
| 20260903005020 | 57 | 129 | 1.0 | 2.0 | 0.00 | 0.01 | 0.00 | 89 | |
| 20260903004020 | 57 | 146 | 1.0 | 2.0 | 0.00 | 0.01 | 0.00 | 90 | |
| 20260903003022 | 57 | 159 | 1.0 | 2.0 | 0.00 | 0.01 | 0.00 | 89 |